www.pogodaiklimat.ru

Погода и климат >> Архив погоды >> Ирак >> Rifai


ПОГОДА в Rifai

  • Прогноз погоды в Rifai
  • Монитор погоды в Rifai
  • Климат города

АРХИВ ПОГОДЫ в Rifai

Время (UTC), дата Ветер
(напр.,м/с)
 
Видим.   Явления Облачность Т
(С)
Тd
(С)
f
(%)
Тe
(С)
Тes
(С)
Комфортность P
(гПа)
Po
(гПа)
Тmin
(С)
Tmax
(С)
R
(мм)
R24
(мм)
S
(см)
18 11.12 штиль 0 10 км ясно +15.0 +11.2 78 +15 +15 1021.6 1022.0 +20.0
03 12.12 штиль 0 10 км ясно +11.4 +9.8 90 +11 +11 1021.3 1021.0
06 12.12 штиль 0 10 км ясно +13.8 +9.9 77 +13 +17 1022.9 1023.0 +11.0
09 12.12 ЮЗ 2 10 км ясно +19.3 +11.9 62 +21 +28 комфорт 1021.6 1022.0
15 12.12 штиль 0 10 км ясно +18.6 +14.1 75 +19 +19 1020.3 1020.0
18 12.12 Ю 2 10 км ясно +16.4 +12.0 75 +17 +17 1020.9 1021.0 +22.1
21 12.12 штиль 0 8000 м дымка ясно +14.6 +11.6 82 +14 +14 1020.4 1020.0
00 13.12 штиль 0 4000 м дымка ясно +13.2 +10.7 85 +13 +13 1020.2 1020.0
06 13.12 штиль 0 10 км ясно +14.6 +10.4 76 +14 +18 1022.5 1023.0 +11.8
09 13.12 Ю 3 10 км ясно +20.4 +11.3 56 +23 +29 комфорт 1021.2 1021.0
12 13.12 Ю 2 10 км 5/5 960 м
[Cu med, cong]
+22.4 +12.1 52 +25 +26 комфорт 1020.1 1020.0
15 13.12 штиль 0 10 км 9/9 1050 м
[Sc]
+20.8 +15.2 70 +24 +24 комфорт 1021.3 1021.0
18 13.12 штиль 0 10 км 4/4 1050 м
[Sc]
+18.2 +14.0 76 +18 +18 1022.7 1023.0 +22.6
21 13.12 штиль 0 8000 м дымка 1/0
[Ci fib]
+15.6 +13.8 89 +15 +15 1022.9 1023.0
00 14.12 штиль 0 6000 м дымка ясно +14.0 +12.5 91 +14 +14 1023.5 1024.0
03 14.12 штиль 0 6000 м дымка ясно +12.0 +10.8 92 +11 +11 1023.7 1024.0
06 14.12 З 2 8000 м дымка ясно +13.4 +11.1 86 +13 +15 1025.4 1025.0 +12.0
09 14.12 СЗ 3 10 км 3/3 900 м
[Cu hum]
+17.2 +12.9 76 +17 +21 1024.9 1025.0
12 14.12 СЗ 4 10 км 3/3 900 м
[Cu hum]
+19.2 +9.3 53 +20 +21 1024.0 1024.0
15 14.12 З 2 10 км ясно +16.8 +12.4 75 +17 +17 1024.9 1025.0
18 14.12 СЗ 2 10 км ясно +14.8 +11.8 82 +14 +14 1025.5 1026.0 +19.4
21 14.12 З 4 10 км ясно +12.8 +8.3 74 +11 +11 1024.7 1025.0
00 15.12 СЗ 5 10 км ясно +11.0 +7.2 77 +8 +8 1024.5 1025.0
03 15.12 СЗ 4 8000 м дымка ясно +8.8 +6.6 86 +6 +6 1024.9 1025.0
06 15.12 СЗ 2 10 км ясно +11.0 +5.8 70 +10 +13 1026.0 1026.0 +8.6
12 15.12 СЗ 5 10 км ясно +17.8 +4.2 40 +17 +19 1024.5 1025.0
15 15.12 СЗ 2 10 км ясно +15.0 +7.7 62 +15 +15 1024.5 1025.0
18 15.12 штиль 0 10 км ясно +12.0 +7.0 71 +12 +12 1025.1 1025.0 +18.0
21 15.12 штиль 0 10 км ясно +10.0 +5.6 74 +9 +9 1025.1 1025.0
00 16.12 штиль 0 10 км ясно +8.4 +5.2 80 +8 +8 1025.7 1026.0
06 16.12 СЗ 2 10 км ясно +10.2 +6.3 77 +9 +12 1025.8 1026.0 +7.2
09 16.12 З 3 10 км 4/0
[Ci sp]
+16.6 +5.3 47 +16 +22 1025.4 1025.0
12 16.12 штиль 0 10 км 6/0
[Ci sp]
+17.8 +5.9 46 +18 +21 1024.1 1024.0
15 16.12 штиль 0 10 км 4/0
[Ci sp]
+15.6 +7.5 59 +16 +16 1024.1 1024.0
18 16.12 штиль 0 10 км ясно +13.0 +7.7 70 +13 +13 1024.3 1024.0 +18.0
21 16.12 штиль 0 10 км ясно +11.8 +9.4 85 +11 +11 1024.6 1025.0
00 17.12 штиль 0 10 км 9/9 1050 м
[Cu Sc]
+11.2 +7.9 80 +11 +11 1023.0 1023.0
06 17.12 В 5 4000 м в посл. час дождь 10/6 1050 м
[Sc As op]
+13.0 +10.7 86 +11 +11 1021.7 1022.0 +10.8 0.0
09 17.12 В 5 10 км в посл. час ливневой дождь 9/9 1050 м
[Cu Sc]
+15.2 +10.2 72 +14 +14 1019.7 1020.0
12 17.12 В 6 10 км в посл. час ливневой дождь 10/10 1000 м
[Cu Sc]
+16.4 +10.8 69 +15 +15 1017.1 1017.0
15 17.12 В 6 10 км 9/9 1050 м
[Sc]
+16.0 +11.1 73 +15 +15 1017.1 1017.0
18 17.12 В 5 10 км в посл. час дождь 10/5 1050 м
[Sc As op]
+15.2 +12.4 83 1017.9 1018.0 +16.8
21 17.12 В 8 5000 м слабый ливневой дождь, в посл. час гроза 10/10 1050 м
[Cu Sc]
+14.4 +13.7 96 +12 +12 1018.2 1018.0
00 18.12 ЮВ 2 3000 м дымка {гроза, ливн. осадки} 10/10 1050 м
[Cu Sc]
+15.0 +14.1 94 +15 +15 1019.1 1019.0
06 18.12 штиль 0 500 м туман {морось} 10/10 1050 м
[St]
+13.2 +12.8 97 +13 +13 1023.1 1023.0 +12.8 11
12 18.12 З 2 1000 м дымка {туман} 10/10 1050 м
[St]
+14.8 +13.0 89 +14 +14 1022.7 1023.0
15 18.12 штиль 0 2000 м дымка 9/9 1050 м
[Sc]
+14.6 +13.1 91 +14 +14 1023.3 1023.0

 

Местоположение метеостанции Rifai (Ирак): широта 31.72 долгота 46.10 высота над уровнем моря 6 м.

В архиве по умолчанию представлена погода в Rifai за последнюю неделю. Архивные данные за месяц целиком и за предыдущие месяцы, начиная с января 2011 года, Вы можете получить, выбрав интересующий диапазон дат из раскрывающегося списка и нажав кнопку "Ввод!".


*Определитесь, кто Вы:
робот инопланетянин человек

Внимание! Время в таблицах - всемирное. Для получения местного времени необходимо прибавить поправку, которая в Rifai равна 3 ч.

Смотрите также архив погоды в соседних городах и на ближайших метеорологических станциях:

Погода в Kut-Al-Hai (Ирак) (50 км)
Погода в Nasiriya (Ирак) (72 км)
Погода в Samawah (Ирак) (92 км)
Погода в Ubaydah Bin Al Jarrah (Ирак) (92 км)
Погода в Ali Al-Gharbi (Ирак) (102 км)
Погода в Amarah (Ирак) (102 км)
Погода в Diwaniya (Ирак) (110 км)
Погода в Badrah (Ирак) (154 км)
Погода в Azizyah (Ирак) (165 км)
Погода в Najaf (Ирак) (171 км)

Пояснения к столбцам:

Ветер - указаны скорость ветра в м/с - средняя за 10 мин, порывы в срок и между сроками (в фигурных скобках) и направление, откуда дует ветер: С - северный, СВ - северо-восточный, В - восточный, ЮВ - юго-восточный, Ю - южный, ЮЗ - юго-западный, З - западный, СЗ - северо-западный.
Видимость - горизонтальная дальность видимости в метрах или километрах. При видимости от 1 до 10 км при отсутствии осадков обычно наблюдается дымка, при ухудшении видимости до 1 км и менее - туман. В сухую погоду видимость может ухудшаться дымом, пылью или мглою.
Явления - указаны атмосферные явления, наблюдавшиеся в срок или в последний час перед сроком; фигурными скобками обозначены явления, наблюдавшиеся между сроками (за 1-3 часа до срока); квадратными скобками обозначены град или гололедные отложения с указанием их диаметра в мм.
Облачность - указаны через наклонную черту общая и нижняя облачность в баллах и высота нижней границы облаков в метрах; квадратными скобками обозначены формы облаков: Ci - перистые, Cs - перисто-слоистые, Cc - перисто-кучевые, Ac - высококучевые, As - высокослоистые, Sc - слоисто-кучевые, Ns - слоисто-дождевые, Cu - кучевые, Cb - кучево-дождевые. Подробнее классификацию облаков см. в Атласе облаков (PDF).
T - Температура воздуха - температура, измеренная на высоте 2 м над землей.
Td - Температура точки росы - температура, при понижении до которой содержащийся в воздухе водяной пар достигнет насыщения.
f - Относительная влажность воздуха - влажноcть воздуха, измеренная на высоте 2 м над землей.
Te - Эффективная температура - температура, которую ощущает одетый по сезону человек в тени. Характеристика душности погоды. При расчете учитывается влияние влажности воздуха и скорости ветра на теплоощущения человека.
Tes - Эффективная температура на солнце - температура, которую ощущает человек, с поправкой на солнечный нагрев. Характеристика знойности погоды. Зависит от высоты солнца над горизонтом, облачности и скорости ветра. Ночью, в пасмурную погоду, а также при ветре 12 м/с и более поправка равна нулю.
P - Атмосферное давление - приведенное к уровню моря атмосферное давление.
Po - Атмосферное давление - измеренное на уровне метеостанции атмосферное давление.
Tmin - Минимальная температура - минимум температуры воздуха на высоте 2 м над землей.
Tmax - Максимальная температура - максимум температуры воздуха на высоте 2 м над землей.
R - Количество осадков - Количество выпавших осадков за период времени, мм. При наведении курсора мыши на число - период времени, за который выпало указанное количество осадков.
R24 - Количество осадков - Количество выпавших осадков за 24 часа, мм.
S - Снежный покров - Высота снежного покрова, см. При наведении курсора мыши на число - состояние снежного покрова и степень покрытия местности в баллах.